DIRECTV 15 (40663 NORAD) Tracking and Keplerian Element Data

This shows tracking and keplerian element data for the satellite.

Feedback or suggestion? Click here.




ElementValue
Catalog40663
NameDIRECTV 15
Epoch Orbit1780
Epoch Day93.5865567
Epoch Year2020
RAAN124.3462
Inclination0.0173
Eccentricity3.35E-05
Argument of Perigee82.86
Mean Anonmoly92.4852
Mean Motion1.00271411
Decay Rate-1.1E-06
L11 40663U 15026A 20093.58655670 -.00000110 00000-0 00000+0 0 9991
L22 40663 0.0173 124.3462 0000335 82.8600 92.4852 1.00271411 17802

Live tracking and technical data element details for DIRECTV 15 (NORAD 40663). DIRECTV 15 can be tracked NOW for your location showing map with azimuth and elevation plus other details from your city location.

Track the satellite on the map from your city or location and see movement details for azimuth, elevation, latitude, longitude, range, height, and movement on the map or in text.







IsCatalogInMostPopularTable: catalog: 40663, numindb: 425
Update: records affected: 1



GetName: 40663 DIRECTV 15

Hit Count: updated at: Thu, 09 Apr 2020 16:13:50 GMT